SES-1

Last updated on Sat Jul 05 2025 00:02:44 GMT+0000 (Coordinated Universal Time)

1 36516U 10016A 25185.61672324 -.00000100 00000+0 00000+0 0 9991 2 36516 0.0421 290.5689 0002718 166.8101 306.5007 1.00271724 55656
UTC large
Height (km)
Speed (km/s)
/
Latitude / Longitude
Inclination (degrees)
Orbital Period (minutes)
Azimuth
Elevation
Range (km)
Doppler Factor

Next 0 passes for location: London (51.5072 / 0.1276)

Sorry there are no passes over London.